Flag for U.S.A. Weather past 2 weeks in New Haven, Connecticut, U.S.A.

69 °F

Broken clouds.

Feels Like: 69 °F
Forecast: 55 / 73 °F
Wind: 8 mph from Southwest

Location: Tweed-New Haven Airport

Current Time: Oct 9, 2015 at 6:16:25 PM

Latest Report: Oct 9, 2015 at 4:53 PM

Visibility: 10 mi

Pressure: 29.75 "Hg

Humidity: 81%

Dew point: 63 °F

Location of New HavenLocation

Historic Weather in New Haven — Graph


New Haven temperature yesterday

Maximum temperature yesterday: 66 °F (at 11:53 AM)
Minimum temperature yesterday: 45 °F (at 4:53 AM)
Average temperature yesterday: 58 °F

Past Weeks' High & Low Weather Summary

High80 °F (Sep 29, 1:53 PM)97% (Sep 27, 11:53 PM)30.51 "Hg (Sep 27, 11:53 PM)
Low45 °F (Oct 8, 4:53 AM)44% (Sep 26, 1:53 PM)29.67 "Hg (Sep 30, 9:53 AM)
Average60 °F76%30.17 "Hg
* Reported Sep 24 3:53 PM — Oct 9 3:53 PM, New Haven, Weather by CustomWeather, © 2015

Note: Actual official high and low records may vary slightly from our data, if they occured in-between our weather recording intervals... More about our weather records


New Haven weather history for previous 24 hours

Time TempWeatherWind HumidityBarometerVisibility
3:53 PM
Fri, Oct 9
70 °FPartly sunny.8 mph79%29.77 "Hg10 mi
3:00 PM70 °FPartly sunny.10 mph76%29.80 "Hg10 mi
2:02 PM69 °FBroken clouds.9 mph76%29.82 "Hg10 mi
1:53 PM69 °FMostly cloudy.10 mph76%29.83 "Hg10 mi
12:53 PM70 °FSunny.12 mph73%29.87 "Hg10 mi
11:53 AM67 °FOvercast.10 mph85%29.90 "Hg10 mi
11:03 AM65 °FLight rain. Broken clouds.10 mph85%29.94 "Hg3 mi
9:53 AM66 °FOvercast.9 mph84%29.96 "Hg10 mi
8:53 AM65 °FMore clouds than sun.12 mph87%29.98 "Hg10 mi
7:53 AM64 °FPassing clouds.10 mph87%29.99 "Hg10 mi
6:53 AM63 °FOvercast.8 mph87%30.01 "Hg10 mi
5:53 AM63 °FPassing clouds.9 mph87%30.03 "Hg10 mi
4:53 AM63 °FPassing clouds.6 mph87%30.03 "Hg10 mi
3:53 AM63 °FPassing clouds.7 mph84%30.04 "Hg10 mi
2:53 AM62 °FPassing clouds.7 mph83%30.06 "Hg10 mi
1:53 AM62 °FPassing clouds.9 mph83%30.09 "Hg10 mi
12:53 AM53 °FPassing clouds.5 mph89%30.10 "Hg10 mi
11:53 PM
Thu, Oct 8
55 °FPassing clouds.No wind80%30.11 "Hg10 mi
10:53 PM61 °FPassing clouds.3 mph70%30.13 "Hg10 mi
9:53 PM61 °FPassing clouds.7 mph67%30.13 "Hg10 mi
8:53 PM61 °FClear.7 mph67%30.13 "Hg10 mi
7:53 PM60 °FClear.6 mph69%30.12 "Hg10 mi
6:53 PM62 °FSunny.8 mph62%30.11 "Hg10 mi
Weather by CustomWeather, © 2015

See weather overviewHow to use our weather pages